Burlington, VT

9:16 AM EST on December 13, 2019 (GMT -0500)
Burlington International

Weather History for KBTV - November, 2019

Change the Weather History Date:

Friday, November 15, 2019

  Actual Average Record
Temperature  
Mean Temperature 32 °F 39 °F  
Max Temperature 40 °F 46 °F 67 °F (1956)
Min Temperature 23 °F 31 °F 9 °F (1933)
Degree Days  
Heating Degree Days 33 26  
Month to date heating degree days 457 361  
Since 1 July heating degree days 964 1102  
Cooling Degree Days 0 0  
Month to date cooling degree days 0 0  
Year to date cooling degree days 606 491  
Moisture  
Dew Point 22 °F    
Average Humidity 65    
Maximum Humidity 82    
Minimum Humidity 48    
Precipitation  
Precipitation 0.02 in 0.10 in 1.01 in (2007)
Month to date precipitation 1.75 1.63  
Year to date precipitation 40.25 32.94  
Snow  
Snow 0.10 in 0.10 in 5.50 in (1921)
Month to date snowfall 10.2 1.6  
Since 1 July snowfall 10.2 1.9  
Since 1 September snowfall 10.2 1.9  
Snow Depth 5.00 in    
Sea Level Pressure  
Sea Level Pressure 30.11 in    
Wind  
Wind Speed 14 mph (WSW)    
Max Wind Speed 28 mph    
Max Gust Speed 37 mph    
Visibility 10 miles    
Events Rain , Snow    
T = Trace of Precipitation, MM = Missing Value Source: NWS Daily Summary

Daily Weather History Graph

Daily Weather History Graph

Search for Another Location

Airport or City:

Astronomy

Nov. 15, 2019 Rise Set
Actual Time 6:48 AM EST 4:25 PM EST
Civil Twilight 6:17 AM EST 4:56 PM EST
Nautical Twilight 5:41 AM EST 5:31 PM EST
Astronomical Twilight 5:07 AM EST 6:06 PM EST
Moon 6:54 PM EST (11/15) 9:46 AM EST (11/15)
Length of Visible Light 10h 39m
Length of Day
9h 36m
Waning Gibbous, 90% of the Moon is Illuminated
Nov 15
Waning Gibbous
Nov 19
Last Quarter
Nov 26
New
Dec 4
First Quarter
Dec 12
Full

Hourly Weather History & Observations

Time (EST) Temp. Windchill Dew Point Humidity Pressure Visibility Wind Dir Wind Speed Gust Speed Precip Events Conditions
12:54 AM 34.0 °F 25.0 °F 19.9 °F 56% 30.14 in 10.0 mi South 12.7 mph - N/A   Overcast
1:54 AM 33.1 °F 24.4 °F 19.9 °F 59% 30.13 in 10.0 mi South 11.5 mph - N/A   Overcast
2:54 AM 34.0 °F 24.6 °F 19.9 °F 56% 30.11 in 10.0 mi South 13.8 mph 21.9 mph N/A   Overcast
3:54 AM 34.0 °F 25.5 °F 19.9 °F 56% 30.09 in 10.0 mi South 11.5 mph - N/A   Overcast
4:54 AM 34.0 °F 24.6 °F 21.0 °F 59% 30.08 in 10.0 mi South 13.8 mph - N/A   Overcast
5:54 AM 35.1 °F 25.5 °F 21.0 °F 57% 30.06 in 10.0 mi South 15.0 mph 26.5 mph N/A   Overcast
6:54 AM 36.0 °F 27.1 °F 21.0 °F 55% 30.06 in 10.0 mi South 13.8 mph 23.0 mph N/A   Mostly Cloudy
7:54 AM 36.0 °F 26.3 °F 21.9 °F 57% 30.06 in 10.0 mi SSW 16.1 mph - N/A   Mostly Cloudy
8:54 AM 37.0 °F 28.1 °F 23.0 °F 57% 30.04 in 10.0 mi South 15.0 mph - N/A   Mostly Cloudy
9:54 AM 37.0 °F 31.0 °F 24.1 °F 59% 30.05 in 10.0 mi SW 8.1 mph - N/A   Mostly Cloudy
10:54 AM 37.0 °F 31.6 °F 25.0 °F 62% 30.06 in 9.0 mi SSW 6.9 mph - 0.00 in Snow Light Snow
11:11 AM 37.0 °F 32.4 °F 26.1 °F 65% 30.03 in 9.0 mi SW 5.8 mph - 0.00 in Snow Light Snow
11:54 AM 37.9 °F 32.7 °F 25.0 °F 60% 30.04 in 9.0 mi WSW 6.9 mph - 0.00 in Snow Light Snow
12:24 PM 37.0 °F 33.3 °F 28.0 °F 70% 30.02 in 10.0 mi Variable 4.6 mph - 0.00 in   Overcast
12:54 PM 37.9 °F 30.9 °F 27.0 °F 65% 30.03 in 10.0 mi WSW 10.4 mph - 0.00 in   Overcast
1:54 PM 39.0 °F 31.8 °F 27.0 °F 62% 30.03 in 10.0 mi SW 11.5 mph 20.7 mph N/A   Overcast
2:54 PM 39.0 °F 31.8 °F 28.0 °F 65% 30.03 in 10.0 mi SSW 11.5 mph - 0.00 in   Overcast
3:12 PM 37.9 °F 32.7 °F 28.0 °F 68% 30.03 in 10.0 mi SW 6.9 mph - 0.00 in Snow Light Snow
3:47 PM 39.0 °F 32.8 °F 28.0 °F 65% 30.03 in 9.0 mi WSW 9.2 mph - 0.00 in Rain Light Rain
3:54 PM 39.0 °F 33.4 °F 28.0 °F 65% 30.05 in 10.0 mi WSW 8.1 mph - 0.00 in   Overcast
4:12 PM 39.0 °F 31.4 °F 28.0 °F 65% 30.04 in 9.0 mi WSW 12.7 mph 18.4 mph 0.00 in Rain Light Rain
4:33 PM 39.0 °F 31.8 °F 28.0 °F 65% 30.05 in 10.0 mi West 11.5 mph - 0.00 in Rain Light Rain
4:54 PM 39.0 °F 31.0 °F 27.0 °F 62% 30.07 in 10.0 mi WSW 13.8 mph 20.7 mph 0.00 in   Overcast
5:32 PM 39.9 °F 30.8 °F 24.1 °F 53% 30.08 in 10.0 mi West 18.4 mph 26.5 mph 0.00 in   Unknown
5:54 PM 34.0 °F 23.0 °F 28.9 °F 82% 30.13 in 2.0 mi NNW 18.4 mph 25.3 mph 0.01 in Snow Light Snow
6:52 PM 33.8 °F 21.3 °F 21.2 °F 60% 30.16 in 10.0 mi NW 24.2 mph 31.1 mph 0.01 in   Overcast
6:54 PM 33.1 °F 19.8 °F 21.0 °F 61% 30.17 in 9.0 mi NW 26.5 mph 35.7 mph 0.01 in Rain Light Rain
7:00 PM 33.1 °F 20.9 °F 21.0 °F 61% 30.16 in 7.0 mi NW 21.9 mph 35.7 mph 0.00 in Snow Light Snow
7:10 PM 33.1 °F 20.6 °F 21.0 °F 61% 30.17 in 9.0 mi NW 23.0 mph 33.4 mph 0.00 in   Overcast
7:54 PM 33.1 °F 21.9 °F 19.9 °F 59% 30.20 in 10.0 mi NNW 18.4 mph 25.3 mph 0.00 in   Overcast
8:54 PM 30.9 °F 17.5 °F 14.0 °F 50% 30.25 in 10.0 mi NW 24.2 mph 32.2 mph N/A   Overcast
9:54 PM 28.0 °F 15.3 °F 10.9 °F 49% 30.30 in 10.0 mi NNW 18.4 mph - N/A   Partly Cloudy
10:54 PM 25.0 °F 10.6 °F 9.0 °F 51% 30.36 in 10.0 mi NNW 20.7 mph 34.5 mph N/A   Clear
11:54 PM 23.0 °F 10.6 °F 8.1 °F 53% 30.40 in 10.0 mi NNW 13.8 mph 27.6 mph N/A   Partly Cloudy